IT9IRS-1 Weather Reports


Display with metric or nautical units.
time (UTC)temp
F
wind
direction
speed
MPH
gust
MPH
rain 1hr
in
rain 24hr
in
rain mn
in
humidity
%
barometer
mb
20260505024504 63 115 10.0 19.0 0.00 0.00 0.00 84 1013.3
20260505024004 63 116 12.0 19.0 0.00 0.00 0.00 84 1013.3
20260505023504 63 115 10.0 17.0 0.00 0.00 0.00 84 1013.3
20260505023217 63 110 11.0 17.0 0.00 0.00 0.00 84 1013.3
20260505022504 63 105 10.0 14.0 0.00 0.00 0.00 84 1013.3
20260505022218 63 107 10.0 14.0 0.00 0.00 0.00 84 1013.3
20260505021504 63 105 11.0 14.0 0.00 0.00 0.00 84 1013.3
20260505021004 63 107 11.0 15.0 0.00 0.00 0.00 84 1013.3
20260505020504 63 100 10.0 15.0 0.00 0.00 0.00 84 1013.3
20260505020004 63 109 8.0 12.0 0.00 0.00 0.00 84 1013.3
20260505015504 63 140 9.0 14.0 0.00 0.00 0.00 84 1013.3
20260505015004 63 132 10.0 14.0 0.00 0.00 0.00 84 1013.3
20260505014714 63 116 9.0 14.0 0.00 0.00 0.00 84 1013.3
20260505014004 63 100 10.0 13.0 0.00 0.00 0.00 84 1013.3
20260505013504 63 111 9.0 13.0 0.00 0.00 0.00 84 1013.3
20260505013003 63 124 9.0 12.0 0.00 0.00 0.00 84 1013.3
20260505012504 63 115 9.0 12.0 0.00 0.00 0.00 84 1013.3
20260505012003 63 106 9.0 12.0 0.00 0.00 0.00 84 1013.3
20260505011504 63 115 9.0 13.0 0.00 0.00 0.00 84 1013.3
20260505011003 63 134 9.0 13.0 0.00 0.00 0.00 84 1013.3
20260505010503 63 121 9.0 13.0 0.00 0.00 0.00 83 1013.3
20260505010005 63 101 9.0 14.0 0.00 0.00 0.00 83 1013.3
20260505005503 63 107 10.0 14.0 0.00 0.00 0.00 83 1013.3
20260505005004 63 121 10.0 17.0 0.00 0.00 0.00 83 1013.3
20260505004714 63 123 9.0 17.0 0.00 0.00 0.00 83 1013.3
20260505004004 63 119 10.0 17.0 0.00 0.00 0.00 82 1014.3
20260505003503 63 106 10.0 17.0 0.00 0.00 0.00 82 1014.3
20260505003213 63 92 11.0 17.0 0.00 0.00 0.00 82 1014.3
20260505002716 63 100 12.0 17.0 0.00 0.00 0.00 82 1014.3
20260505002003 63 112 11.0 14.0 0.00 0.00 0.00 81 1014.3
20260505001504 64 126 10.0 17.0 0.00 0.00 0.00 81 1014.3
20260505001003 64 124 10.0 17.0 0.00 0.00 0.00 81 1014.3
20260505000503 64 128 12.0 21.0 0.00 0.00 0.00 80 1014.3
20260505000003 64 135 14.0 21.0 0.00 0.00 0.00 80 1014.3
20260504235505 64 127 12.0 17.0 0.00 0.00 0.00 80 1014.3
20260504235005 64 148 10.0 17.0 0.00 0.00 0.00 80 1014.3
20260504234503 64 147 10.0 14.0 0.00 0.00 0.00 80 1014.3
20260504234004 64 130 11.0 18.0 0.00 0.00 0.00 80 1014.3
20260504233503 64 135 11.0 18.0 0.00 0.00 0.00 80 1014.3
20260504233214 64 140 11.0 18.0 0.00 0.00 0.00 80 1014.3
20260504232504 64 137 12.0 17.0 0.00 0.00 0.00 80 1014.3
20260504232004 64 128 11.0 17.0 0.00 0.00 0.00 80 1014.3
20260504231504 64 132 12.0 17.0 0.00 0.00 0.00 80 1014.3
20260504231004 64 126 12.0 15.0 0.00 0.00 0.00 80 1014.3
20260504230714 64 132 12.0 15.0 0.00 0.00 0.00 80 1014.3
20260504230004 64 136 12.0 21.0 0.00 0.00 0.00 80 1014.3
20260504225504 64 107 12.0 21.0 0.00 0.00 0.00 80 1014.3
20260504225004 64 105 10.0 15.0 0.00 0.00 0.00 80 1014.3
20260504224504 64 131 11.0 15.0 0.00 0.00 0.00 80 1014.3
20260504224214 64 123 10.0 15.0 0.00 0.00 0.00 79 1014.3
20260504223504 64 115 9.0 14.0 0.00 0.00 0.00 79 1014.3
20260504223004 64 119 10.0 14.0 0.00 0.00 0.00 79 1014.3
20260504222504 64 123 11.0 14.0 0.00 0.00 0.00 79 1014.3
20260504222004 64 127 11.0 14.0 0.00 0.00 0.00 79 1014.3
20260504221504 64 127 10.0 17.0 0.00 0.00 0.00 79 1014.3
20260504221004 64 129 9.0 17.0 0.00 0.00 0.00 79 1015.3
20260504220504 64 126 9.0 16.0 0.00 0.00 0.00 79 1015.3
20260504220004 64 128 9.0 16.0 0.00 0.00 0.00 78 1015.3
20260504215504 64 134 10.0 12.0 0.00 0.00 0.00 78 1014.3
20260504215218 64 123 9.0 13.0 0.00 0.00 0.00 78 1014.3
20260504214504 64 126 9.0 18.0 0.00 0.00 0.00 78 1014.3
20260504214005 64 122 9.0 18.0 0.00 0.00 0.00 78 1014.3
20260504213503 64 112 8.0 14.0 0.00 0.00 0.00 78 1014.3
20260504213004 64 128 9.0 14.0 0.00 0.00 0.00 78 1014.3
20260504212503 64 119 9.0 14.0 0.00 0.00 0.00 78 1014.3
20260504212003 64 117 8.0 14.0 0.00 0.00 0.00 78 1014.3
20260504211714 64 122 10.0 17.0 0.00 0.00 0.00 78 1014.3
20260504211003 64 119 12.0 17.0 0.00 0.00 0.00 78 1014.3
20260504210715 64 118 12.0 14.0 0.00 0.00 0.00 78 1014.3
20260504210218 64 120 11.0 14.0 0.00 0.00 0.00 78 1014.3
20260504205503 64 109 10.0 14.0 0.00 0.00 0.00 78 1015.3
20260504205003 64 130 10.0 14.0 0.00 0.00 0.00 78 1015.3
20260504204503 64 145 10.0 15.0 0.00 0.00 0.00 78 1015.3
20260504204003 64 134 11.0 15.0 0.00 0.00 0.00 78 1015.3
20260504203503 64 128 11.0 15.0 0.00 0.00 0.00 77 1015.3
20260504203005 64 135 11.0 15.0 0.00 0.00 0.00 77 1015.3
20260504202714 64 138 10.0 13.0 0.00 0.00 0.00 77 1015.3
20260504202003 64 141 10.0 13.0 0.00 0.00 0.00 77 1015.3
20260504201504 64 140 11.0 13.0 0.00 0.00 0.00 77 1015.3
20260504201003 64 151 11.0 21.0 0.00 0.00 0.00 77 1015.3
20260504200503 64 153 12.0 21.0 0.00 0.00 0.00 77 1015.3
20260504200003 64 141 11.0 15.0 0.00 0.00 0.00 77 1015.3
20260504195504 64 133 10.0 13.0 0.00 0.00 0.00 77 1015.3
20260504195004 64 135 11.0 17.0 0.00 0.00 0.00 77 1015.3
20260504194505 64 139 11.0 17.0 0.00 0.00 0.00 76 1015.3
20260504194215 64 142 12.0 17.0 0.00 0.00 0.00 76 1015.3
20260504193504 64 135 11.0 17.0 0.00 0.00 0.00 76 1015.3
20260504193004 64 140 13.0 17.0 0.00 0.00 0.00 76 1015.3
20260504192504 64 145 12.0 17.0 0.00 0.00 0.00 76 1014.3
20260504192004 64 140 11.0 17.0 0.00 0.00 0.00 76 1014.3
20260504191715 64 132 11.0 15.0 0.00 0.00 0.00 76 1014.3
20260504191005 64 128 10.0 17.0 0.00 0.00 0.00 76 1014.3
20260504190504 64 135 11.0 17.0 0.00 0.00 0.00 76 1014.3
20260504190214 64 131 11.0 15.0 0.00 0.00 0.00 76 1014.3
20260504185504 64 133 10.0 15.0 0.00 0.00 0.00 76 1014.3
20260504185004 64 136 9.0 12.0 0.00 0.00 0.00 76 1014.3
20260504184713 64 139 9.0 12.0 0.00 0.00 0.00 76 1014.3
20260504184004 64 127 10.0 15.0 0.00 0.00 0.00 76 1014.3
20260504183504 64 121 11.0 15.0 0.00 0.00 0.00 76 1014.3
20260504183003 64 133 10.0 16.0 0.00 0.00 0.00 76 1014.3
20260504182504 65 139 10.0 17.0 0.00 0.00 0.00 76 1014.3
20260504182004 65 126 9.0 17.0 0.00 0.00 0.00 75 1014.3
20260504181504 65 116 9.0 11.0 0.00 0.00 0.00 75 1014.3
20260504181214 65 116 8.0 10.0 0.00 0.00 0.00 76 1014.3
20260504180504 65 131 10.0 13.0 0.00 0.00 0.00 75 1014.3
20260504180004 65 133 10.0 16.0 0.00 0.00 0.00 75 1014.3
20260504175504 65 128 8.0 16.0 0.00 0.00 0.00 75 1014.3
20260504175003 65 132 9.0 15.0 0.00 0.00 0.00 75 1014.3
20260504174504 65 132 11.0 15.0 0.00 0.00 0.00 75 1014.3
20260504174003 65 127 9.0 15.0 0.00 0.00 0.00 75 1014.3
20260504173715 65 128 8.0 15.0 0.00 0.00 0.00 75 1014.3
20260504173004 65 121 9.0 14.0 0.00 0.00 0.00 74 1014.3
20260504172503 65 136 10.0 14.0 0.00 0.00 0.00 74 1014.3
20260504172003 65 136 10.0 14.0 0.00 0.00 0.00 74 1014.3
20260504171503 65 136 9.0 13.0 0.00 0.00 0.00 74 1014.3
20260504171004 65 142 10.0 15.0 0.00 0.00 0.00 74 1014.3
20260504170503 65 143 11.0 15.0 0.00 0.00 0.00 73 1014.3
20260504151004 67 162 13.0 15.0 0.00 0.00 0.00 70 1014.3
20260504150504 68 154 12.0 15.0 0.00 0.00 0.00 70 1014.3
20260504141004 68 144 12.0 17.0 0.00 0.00 0.00 70 1015.3
20260504140504 67 148 13.0 18.0 0.00 0.00 0.00 70 1015.3
20260504130503 69 147 14.0 17.0 0.00 0.00 0.00 69 1015.3
20260504110504 68 155 14.0 21.0 0.00 0.00 0.00 74 1016.3
20260504100503 68 126 13.0 19.0 0.00 0.00 0.00 75 1016.3
20260504082004 65 110 15.0 20.0 0.00 0.00 0.00 76 1016.3
20260504081504 65 113 14.0 22.0 0.00 0.00 0.00 76 1016.3
20260504081215 65 108 14.0 22.0 0.00 0.00 0.00 76 1016.3
20260504080504 65 111 15.0 20.0 0.00 0.00 0.00 76 1016.3
20260504050503 62 115 11.0 17.0 0.00 0.00 0.00 82 1015.3
20260504050003 62 116 11.0 17.0 0.00 0.00 0.00 82 1015.3
20260504045716 62 105 12.0 17.0 0.00 0.00 0.00 82 1015.3
20260504045003 62 101 12.0 17.0 0.00 0.00 0.00 82 1015.3
20260504044504 62 101 11.0 14.0 0.00 0.00 0.00 82 1015.3
20260504044003 62 95 11.0 16.0 0.00 0.00 0.00 82 1015.3
20260504043503 62 103 11.0 16.0 0.00 0.00 0.00 82 1015.3
20260504043216 62 102 11.0 16.0 0.00 0.00 0.00 82 1015.3
20260504042504 62 108 11.0 16.0 0.00 0.00 0.00 82 1015.3
20260504042004 62 112 11.0 16.0 0.00 0.00 0.00 81 1015.3
20260504041715 62 106 11.0 16.0 0.00 0.00 0.00 81 1015.3
20260504041004 62 94 12.0 15.0 0.00 0.00 0.00 81 1015.3
20260504040505 62 97 11.0 15.0 0.00 0.00 0.00 81 1015.3
20260504040004 62 100 11.0 15.0 0.00 0.00 0.00 81 1015.3
20260504035504 62 104 11.0 15.0 0.00 0.00 0.00 81 1015.3
20260504035215 62 104 11.0 14.0 0.00 0.00 0.00 81 1015.3
20260504034504 62 117 12.0 15.0 0.00 0.00 0.00 80 1015.3
20260504034216 62 117 12.0 15.0 0.00 0.00 0.00 80 1015.3
20260504033505 62 118 12.0 15.0 0.00 0.00 0.00 80 1015.3
20260504033217 62 122 11.0 15.0 0.00 0.00 0.00 80 1015.3
20260504032504 62 119 11.0 14.0 0.00 0.00 0.00 80 1015.3
20260504032004 62 114 11.0 14.0 0.00 0.00 0.00 79 1015.3
20260504031715 62 109 11.0 14.0 0.00 0.00 0.00 79 1015.3
20260504031004 62 99 9.0 14.0 0.00 0.00 0.00 79 1015.3
20260504030504 62 109 9.0 14.0 0.00 0.00 0.00 79 1015.3
20260504030214 62 107 9.0 12.0 0.00 0.00 0.00 79 1015.3
20260504025717 62 111 9.0 12.0 0.00 0.00 0.00 79 1015.3